Starlink 2754

operational
NORAD ID: 48641 Int'l Des: 2021-044 Owner: SPXS Country: US Constellation: starlink
LEOCIRCULARSTARLINK_TYPE

Über Starlink 2754

Beschreibung wird geladen...

Live-Position

3D-Globus wird geladen...

Nächste Überflüge

Höhenverlauf

Altitude vs Time

uPlot chart will show altitude changes over time

Zweizeiliger Elementsatz

1 48641U 21044D 25351.71169806 .00002492 00000-0 18613-3 0 9997
2 48641 53.0539 129.6323 0001306 92.0786 268.0352 15.06399844251359
Epoch: 17. Dez. 2025 • Age: 17 hours

Aktueller Status

Höhe 553.5 km
Geschwindigkeit 7.58 km/s
Subsatellitenpunkt -20.80°S, 134.62°W
Startdatum 26. Mai 2021
Alter 4.5 years
Typ internet

Technische Details

Klassifizierung Payload
Masse 260.00 kg
Trockenmasse 248.00 kg
Gesamtmasse 260.00 kg
Länge 0.20 m
Durchmesser 2.80 m
Spannweite 9.00 m
Form Box + pan
Hersteller SPXS
Bus-Typ Starlink
Phasenstatus In Orbit
Besitzer/Staat SPXS/US

Große Konstellationen

Loading constellations...